Wind_Speed
8 8 8 6 5 4 4 3 3 3 3 2 2 3 3 3 3 3 3 4 6 8 10 12 14 16 18 20 22 24 26 28 29 31 32 33 34 36 37 38 39 39 40 41 41 41 42 43 44
12 11 10 9 8 7 6 6 6 6 5 4 4 3 3 3 3 4 6 8 10 12 14 17 19 21 24 26 28 30 31 33 34 36 37 39 40 41 42 43 44 45 46 46 47 47 47 46 46
13 12 11 10 9 8 8 7 7 7 6 5 4 3 2 3 5 7 10 12 15 17 19 22 24 26 28 30 32 34 36 37 39 40 42 43 45 46 47 48 49 50 51 51 52 52 53 53 52
13 12 11 10 10 9 8 8 7 7 5 4 2 2 4 6 9 11 14 17 19 21 24 26 28 30 32 34 36 37 39 41 43 44 46 48 49 51 52 53 54 55 55 56 57 57 57 58 58
13 12 11 11 10 9 8 7 6 4 2 2 3 6 8 11 14 16 19 21 24 26 28 30 32 34 35 37 38 40 42 45 47 49 51 53 54 56 57 58 59 60 61 62 62 62 63 62 62
12 11 10 9 8 6 5 4 2 2 3 6 9 11 13 16 19 21 24 26 28 29 31 33 34 36 37 39 41 44 46 49 51 53 55 58 60 62 63 65 66 67 68 68 69 69 68 68 68
9 8 7 6 4 3 2 2 3 6 8 11 13 16 18 20 23 25 27 28 30 32 33 35 36 38 40 42 45 48 50 53 55 58 60 62 65 67 69 71 72 74 75 76 76 76 76 75 74
5 4 3 2 2 3 5 6 8 10 12 15 17 19 21 23 25 27 28 30 32 33 35 37 39 41 44 47 50 52 55 58 60 63 65 68 70 72 75 77 79 80 81 82 82 82 82 82 81
2 2 3 4 6 7 9 10 12 15 17 19 21 22 24 25 26 28 29 31 32 34 37 39 42 44 47 51 54 57 59 62 65 67 70 73 76 78 81 83 85 86 88 89 89 89 89 88 88
5 6 7 9 10 12 14 15 17 18 20 21 23 24 25 26 27 28 30 32 34 37 39 42 45 48 51 54 57 60 63 66 69 72 75 78 81 84 87 89 91 92 94 95 96 97 96 96 95
9 10 12 13 15 16 18 19 20 21 22 22 23 24 25 26 27 29 31 34 37 39 42 45 48 51 54 57 60 62 65 69 72 76 79 82 85 88 91 94 96 98 99 100 100 100 101 101 101
13 14 15 17 18 18 19 20 20 21 21 22 22 23 25 26 28 30 33 36 39 42 45 48 51 54 57 59 62 65 68 72 76 80 83 87 90 93 96 99 101 101 101 100 100 99 98 99 99
14 15 16 17 18 18 19 19 20 20 21 21 22 24 25 27 29 32 35 38 41 44 47 50 53 56 59 61 65 68 72 76 80 84 88 91 95 98 100 101 100 99 97 95 93 92 91 90 91
15 15 16 16 17 17 18 18 19 20 21 22 23 25 27 28 31 34 37 40 43 46 49 52 54 57 60 64 67 71 75 79 83 87 91 95 97 99 98 97 94 90 88 86 85 84 83 83 83
15 15 16 16 16 17 17 18 19 20 22 23 25 26 28 30 33 36 39 42 45 48 50 53 55 59 62 66 70 74 78 82 86 90 94 96 96 95 93 89 86 83 82 81 79 78 77 77 76
15 15 16 16 16 17 18 19 20 22 23 24 26 27 29 31 34 37 40 43 46 48 51 54 57 61 65 69 72 76 80 84 88 92 94 94 92 89 86 83 81 80 79 77 75 74 72 70 69
15 16 16 16 17 18 19 20 21 23 24 25 27 28 30 33 36 39 41 44 47 49 52 55 59 63 67 71 75 78 82 86 90 92 92 90 87 83 81 80 79 78 76 75 74 73 71 69 67
15 15 16 17 17 18 20 22 23 24 25 26 27 29 32 34 37 40 42 45 47 50 53 57 61 65 69 73 76 80 84 88 90 91 89 86 82 80 79 78 77 76 76 76 76 75 73 72 70
14 15 16 17 18 19 20 22 24 24 25 26 28 30 32 35 38 41 43 46 48 51 55 59 63 67 70 74 77 81 85 88 89 88 85 82 79 78 77 76 75 76 76 76 74 72 70 69 70
14 14 15 17 18 19 19 21 24 24 25 26 28 30 33 36 39 42 44 47 50 53 57 61 65 68 71 74 78 82 85 87 87 84 81 79 77 76 75 74 75 76 75 72 69 66 64 62 62
13 14 16 17 18 19 20 20 23 23 24 26 28 31 34 37 40 43 46 49 51 55 59 63 66 69 72 75 79 82 85 86 84 81 78 76 75 75 74 74 75 74 73 69 65 61 57 54 52
13 15 16 17 19 20 21 20 23 24 25 26 29 32 35 38 41 44 47 50 53 56 60 64 67 70 72 76 79 82 84 83 81 78 76 74 74 73 73 73 74 72 70 66 62 56 51 45 42
14 16 17 18 19 20 21 22 23 25 26 28 31 34 37 40 43 46 49 51 54 57 61 65 68 70 73 76 79 81 82 81 79 76 74 73 72 72 72 72 72 70 67 62 58 52 45 37 31
14 16 17 19 20 21 23 24 25 27 28 30 33 35 38 41 44 47 49 52 55 58 62 66 68 70 73 76 79 81 81 79 76 73 72 71 71 71 71 71 69 67 63 58 53 47 40 32 24
14 16 18 21 22 23 24 26 27 29 30 32 35 37 40 42 45 47 50 53 56 59 63 66 68 70 73 76 78 79 79 77 74 72 70 70 69 69 69 69 67 64 60 53 49 43 37 30 21
14 16 20 22 23 23 26 28 30 32 33 36 38 40 41 43 45 48 51 54 57 60 63 66 68 70 72 75 77 78 77 75 73 71 69 69 69 68 68 68 66 62 57 49 44 39 34 28 20
13 16 19 21 23 25 28 30 32 35 37 39 41 42 44 45 47 49 52 54 57 60 64 66 68 69 72 74 76 77 76 74 71 69 68 68 68 67 67 66 64 61 55 47 39 34 30 25 18
13 16 20 23 26 28 30 33 35 38 40 42 44 46 47 48 49 51 53 56 58 61 64 66 67 69 71 73 75 75 74 72 70 68 67 67 66 66 66 65 63 59 54 46 37 31 27 22 17
14 17 20 23 26 29 31 33 35 38 41 44 47 49 50 51 52 54 55 57 59 61 64 66 67 69 71 73 74 74 73 70 69 67 66 65 65 65 65 64 63 59 54 46 37 30 26 21 16
14 17 20 22 25 27 30 33 36 39 42 45 48 51 53 54 55 56 57 58 59 62 64 66 67 68 70 72 73 73 71 69 68 66 65 64 64 64 64 63 62 60 54 47 39 31 25 21 16
Wind_Direction
95 96 95 93 96 96 96 98 99 97 90 71 57 47 39 23 7 356 350 342 331 324 320 317 314 311 308 306 303 301 299 296 294 292 290 288 286 285 283 281 280 279 277 275 274 271 269 266 263
91 93 93 92 93 95 94 94 95 93 90 85 78 67 52 34 4 345 335 330 324 320 317 314 312 310 307 305 303 301 298 296 295 293 291 289 288 286 284 282 280 278 277 275 273 271 270 268 265
93 95 96 95 96 97 97 94 95 95 93 91 86 73 41 355 337 329 326 322 319 316 314 312 310 308 306 304 302 301 299 297 296 295 293 292 290 288 286 284 282 280 278 275 273 271 269 268 265
94 96 97 99 100 100 101 101 100 103 102 95 70 11 335 328 324 321 319 317 315 314 312 311 309 308 306 304 303 302 301 299 298 297 295 294 292 290 288 286 284 282 279 277 274 272 269 267 265
95 98 100 102 104 103 104 102 101 102 83 28 342 328 323 322 320 319 318 316 315 314 312 311 309 307 306 305 304 303 302 301 300 299 297 296 294 292 290 288 286 284 281 279 276 273 271 268 265
97 97 100 102 103 100 96 87 75 15 338 331 328 324 322 320 319 319 317 316 314 313 311 310 308 307 306 306 305 305 304 303 302 301 299 298 296 295 292 290 288 285 283 280 278 275 272 269 266
92 91 94 91 91 82 53 6 335 327 323 322 321 319 319 318 317 316 315 313 313 312 311 310 310 309 309 308 308 307 306 305 304 303 301 299 298 296 294 291 289 286 284 281 279 276 273 270 267
84 86 75 50 8 341 333 324 317 316 315 314 314 315 315 315 315 314 313 313 313 313 312 313 313 312 312 311 310 310 308 307 306 304 302 300 298 296 294 292 290 287 285 282 279 276 273 270 267
38 8 337 328 319 315 315 313 311 311 310 311 312 313 313 314 314 314 314 314 314 314 314 314 314 313 313 313 312 311 309 308 306 304 302 300 298 296 294 292 290 288 286 283 280 277 274 271 268
321 311 310 310 309 308 308 308 308 308 308 309 311 313 313 314 315 316 317 316 316 316 316 316 315 315 314 313 312 311 309 308 306 304 302 301 299 297 295 293 291 289 287 285 282 279 276 272 269
307 306 305 306 307 308 308 308 308 308 308 310 312 314 315 317 318 318 318 317 317 317 317 317 316 315 314 313 312 310 309 307 306 304 303 301 300 298 296 294 292 291 289 287 284 282 279 275 271
307 307 307 307 309 310 310 310 310 310 312 314 316 317 318 320 320 320 319 318 318 318 318 318 317 316 314 313 311 310 309 308 307 306 305 303 302 300 299 297 296 294 292 289 286 283 280 277 273
309 310 311 312 313 314 313 313 314 315 316 318 319 321 321 321 321 321 320 319 319 319 318 318 316 315 314 313 312 311 311 310 309 308 307 306 304 303 301 300 298 296 294 291 288 284 280 276 272
317 318 319 320 319 319 319 319 319 320 321 322 323 323 323 322 322 321 320 319 319 319 318 317 316 315 314 314 314 313 313 312 311 310 309 308 306 305 303 302 300 298 295 292 289 285 281 277 273
325 326 326 327 327 326 325 323 324 323 323 324 324 324 324 323 323 322 321 320 320 319 318 317 316 316 316 316 316 316 315 314 313 312 311 309 309 308 306 305 303 300 298 295 291 287 283 279 275
331 331 332 333 332 330 328 326 326 324 324 325 325 325 325 324 323 322 321 320 319 318 318 317 318 318 318 319 318 318 317 316 315 314 313 312 312 311 310 309 306 304 301 298 294 290 285 280 274
335 336 336 335 334 332 329 326 326 325 325 326 326 326 325 324 323 322 321 320 319 319 319 320 320 320 321 321 320 320 319 318 317 316 316 316 315 315 314 312 310 307 304 300 296 291 285 279 273
339 339 338 336 335 332 329 326 326 326 327 327 327 326 325 323 322 321 321 320 321 321 322 322 322 323 323 323 322 321 320 320 319 319 319 319 319 318 317 315 313 310 307 303 298 292 285 279 272
343 344 342 339 337 333 330 327 328 329 329 329 327 326 324 323 322 322 322 323 323 324 324 325 325 324 324 324 323 323 322 321 321 322 322 322 322 321 320 318 316 314 311 307 302 296 288 280 271
349 349 348 345 340 337 334 330 330 333 332 330 328 326 325 324 323 324 325 325 326 326 326 327 326 326 326 325 325 324 324 323 324 325 325 325 325 324 324 322 321 319 316 313 308 302 294 284 273
359 358 355 351 347 344 342 337 334 337 334 332 330 327 326 325 325 326 327 328 328 328 328 328 328 327 327 327 326 326 326 326 327 327 328 328 328 328 327 327 326 325 323 321 317 311 303 290 276
11 8 3 359 356 352 350 347 341 341 338 335 331 329 327 327 328 329 329 329 329 329 329 329 329 329 329 329 328 329 329 329 330 330 330 331 331 331 331 331 331 330 330 328 326 321 314 301 282
24 19 14 11 6 0 357 355 351 347 342 337 334 331 331 330 330 331 330 331 331 331 331 331 330 331 331 331 331 331 331 332 332 333 333 334 334 335 335 336 336 336 335 334 333 331 326 315 295
34 28 24 21 16 9 6 3 358 353 348 342 338 336 334 333 332 332 332 332 333 333 332 332 332 332 333 333 333 333 334 334 335 335 336 337 337 338 339 340 340 340 340 339 340 341 340 334 316
35 32 29 27 22 16 11 9 4 358 354 348 344 341 338 335 334 334 334 334 335 334 334 334 334 334 335 335 335 336 336 337 337 338 339 340 340 341 342 344 344 345 344 344 345 348 349 348 338
29 27 27 27 24 18 15 13 7 3 359 355 351 347 343 339 337 336 336 336 336 336 336 336 336 336 337 337 337 338 338 339 339 340 341 343 344 345 346 347 348 348 348 347 348 351 354 355 354
22 22 21 21 19 17 16 13 9 6 3 359 355 351 347 344 341 339 339 338 338 338 338 338 338 338 338 339 339 340 341 341 342 343 344 345 346 348 349 350 351 351 351 349 349 351 354 355 355
11 12 11 11 12 12 10 10 8 6 4 1 358 355 352 348 345 343 341 340 340 339 339 339 339 339 340 341 341 342 343 343 344 345 346 347 349 350 351 353 354 354 354 351 349 348 350 351 349
358 2 5 5 5 4 5 5 4 3 2 1 359 357 355 352 349 346 344 342 342 341 341 341 341 341 342 343 343 344 344 345 346 347 348 349 351 352 353 355 356 357 356 355 351 347 347 347 344
345 352 356 358 360 359 359 358 359 360 360 360 359 358 356 354 351 349 346 344 343 343 342 342 342 343 343 344 345 346 346 347 348 349 350 351 352 354 355 356 358 359 359 358 355 350 346 343 338
Height
5884 5884 5885 5886 5887 5888 5887 5887 5886 5886 5886 5885 5884 5884 5884 5883 5883 5884 5881 5879 5878 5876 5875 5873 5872 5870 5868 5866 5864 5861 5859 5857 5855 5852 5850 5848 5846 5844 5842 5840 5839 5837 5835 5834 5833 5832 5831 5831 5831
5885 5886 5887 5888 5888 5888 5888 5887 5887 5886 5886 5885 5885 5884 5884 5883 5882 5881 5880 5878 5877 5875 5873 5871 5869 5867 5864 5862 5859 5857 5854 5851 5849 5846 5843 5841 5838 5836 5834 5832 5830 5828 5827 5825 5824 5823 5822 5822 5822
5888 5888 5889 5889 5888 5889 5888 5888 5887 5886 5886 5886 5885 5885 5884 5883 5882 5880 5878 5876 5874 5872 5870 5868 5865 5863 5860 5857 5854 5851 5848 5845 5842 5839 5835 5832 5829 5827 5824 5822 5820 5818 5816 5814 5813 5812 5812 5811 5811
5890 5891 5891 5890 5889 5889 5889 5888 5887 5887 5886 5886 5885 5885 5883 5882 5880 5879 5876 5874 5872 5869 5867 5864 5861 5858 5855 5851 5848 5844 5841 5837 5834 5830 5826 5823 5819 5816 5813 5810 5807 5805 5803 5801 5800 5799 5799 5799 5799
5892 5892 5892 5891 5890 5890 5889 5889 5888 5887 5887 5886 5885 5883 5882 5880 5878 5876 5873 5871 5868 5865 5862 5859 5856 5852 5849 5845 5841 5837 5833 5829 5824 5820 5816 5811 5807 5803 5800 5796 5793 5791 5788 5786 5785 5784 5784 5784 5784
5894 5894 5893 5892 5892 5891 5890 5889 5889 5888 5887 5885 5884 5882 5880 5878 5875 5873 5870 5867 5864 5860 5857 5854 5850 5846 5842 5838 5834 5829 5825 5820 5815 5809 5804 5799 5794 5789 5785 5780 5777 5773 5771 5769 5767 5766 5765 5766 5766
5896 5895 5894 5894 5893 5892 5891 5890 5888 5887 5886 5884 5882 5880 5878 5875 5872 5869 5866 5863 5859 5855 5852 5848 5843 5839 5835 5830 5825 5820 5815 5809 5803 5797 5791 5785 5779 5773 5768 5763 5758 5754 5751 5748 5746 5745 5745 5745 5745
5896 5897 5895 5894 5893 5892 5890 5889 5887 5886 5884 5882 5880 5878 5875 5872 5869 5865 5862 5858 5854 5850 5845 5841 5836 5831 5826 5821 5815 5809 5803 5797 5790 5784 5777 5770 5764 5757 5750 5743 5738 5732 5728 5725 5722 5721 5720 5721 5722
5897 5897 5895 5893 5892 5891 5889 5887 5886 5884 5881 5879 5876 5874 5871 5868 5864 5861 5857 5853 5848 5844 5839 5834 5829 5823 5817 5811 5805 5798 5791 5784 5777 5770 5762 5755 5747 5739 5731 5723 5715 5709 5703 5698 5695 5693 5692 5693 5695
5897 5896 5894 5893 5891 5889 5887 5885 5883 5881 5878 5876 5873 5870 5867 5863 5860 5856 5852 5847 5842 5837 5832 5827 5821 5814 5808 5801 5794 5787 5780 5772 5764 5756 5747 5738 5729 5719 5710 5701 5692 5683 5676 5670 5665 5662 5660 5661 5663
5896 5894 5892 5890 5888 5886 5884 5882 5879 5877 5874 5872 5869 5866 5862 5859 5855 5851 5846 5841 5836 5831 5825 5819 5812 5806 5799 5792 5784 5776 5768 5759 5750 5740 5730 5720 5709 5697 5686 5675 5665 5656 5647 5639 5634 5629 5625 5625 5627
5894 5892 5890 5888 5886 5883 5881 5878 5876 5873 5871 5868 5865 5861 5858 5855 5850 5846 5841 5835 5830 5824 5818 5811 5804 5797 5790 5782 5774 5765 5755 5745 5734 5723 5711 5699 5686 5673 5660 5647 5635 5624 5615 5606 5600 5595 5591 5589 5589
5892 5889 5887 5885 5882 5880 5877 5874 5872 5869 5866 5863 5860 5857 5854 5850 5845 5840 5835 5829 5823 5817 5810 5803 5796 5788 5780 5772 5762 5752 5741 5729 5717 5704 5690 5676 5661 5646 5632 5618 5605 5594 5583 5574 5567 5561 5558 5556 5555
5890 5887 5884 5882 5879 5877 5874 5871 5868 5865 5862 5859 5856 5853 5849 5845 5840 5835 5829 5823 5816 5810 5803 5795 5788 5779 5770 5760 5750 5738 5726 5712 5699 5684 5668 5652 5636 5621 5606 5592 5578 5566 5556 5547 5539 5532 5527 5524 5523
5887 5884 5882 5879 5876 5873 5871 5868 5865 5862 5859 5856 5852 5849 5845 5840 5835 5829 5823 5816 5810 5803 5795 5787 5779 5770 5759 5748 5736 5723 5710 5696 5680 5664 5647 5629 5612 5596 5581 5567 5554 5541 5530 5520 5511 5504 5498 5494 5492
5885 5882 5880 5877 5874 5871 5869 5866 5862 5858 5855 5852 5849 5844 5840 5835 5829 5823 5817 5810 5803 5796 5788 5779 5769 5759 5747 5735 5722 5708 5694 5678 5661 5644 5626 5608 5590 5573 5558 5544 5530 5517 5505 5494 5485 5477 5472 5467 5465
5883 5880 5877 5875 5871 5868 5865 5862 5859 5855 5852 5848 5844 5840 5835 5829 5824 5818 5811 5804 5796 5788 5779 5770 5759 5747 5735 5721 5707 5692 5677 5660 5642 5623 5604 5586 5569 5553 5537 5522 5508 5494 5482 5470 5460 5451 5445 5441 5439
5881 5878 5875 5872 5869 5866 5862 5859 5856 5852 5848 5844 5840 5835 5830 5824 5819 5812 5805 5798 5789 5780 5771 5760 5748 5736 5723 5709 5693 5677 5660 5642 5623 5604 5585 5567 5551 5535 5519 5503 5487 5473 5459 5446 5433 5423 5416 5411 5409
5879 5876 5873 5870 5866 5863 5860 5856 5852 5849 5845 5841 5836 5831 5825 5820 5813 5806 5799 5790 5781 5772 5761 5750 5738 5725 5711 5697 5681 5664 5646 5627 5607 5587 5568 5551 5534 5518 5501 5485 5469 5452 5436 5420 5405 5392 5384 5379 5377
5877 5874 5871 5868 5864 5861 5858 5854 5849 5846 5842 5837 5832 5827 5821 5814 5807 5800 5792 5783 5773 5763 5752 5740 5728 5714 5700 5685 5669 5651 5632 5612 5592 5572 5553 5536 5519 5502 5485 5467 5450 5431 5414 5396 5379 5364 5354 5348 5345
5875 5873 5870 5867 5863 5859 5856 5852 5847 5843 5839 5834 5829 5823 5816 5809 5801 5793 5784 5775 5765 5755 5743 5731 5718 5704 5689 5673 5656 5638 5618 5597 5578 5559 5541 5523 5505 5487 5469 5451 5432 5412 5392 5374 5357 5341 5329 5321 5319
5875 5872 5868 5864 5861 5857 5854 5850 5845 5841 5836 5830 5825 5818 5811 5803 5795 5786 5777 5767 5757 5746 5734 5721 5708 5693 5678 5662 5644 5625 5606 5586 5566 5547 5529 5510 5492 5474 5456 5437 5417 5396 5376 5357 5340 5323 5309 5300 5296
5874 5870 5867 5863 5859 5855 5851 5847 5844 5838 5832 5827 5820 5813 5805 5797 5789 5780 5770 5760 5749 5738 5725 5712 5698 5683 5667 5650 5632 5613 5593 5573 5554 5536 5518 5500 5482 5463 5444 5425 5404 5384 5364 5346 5328 5312 5298 5287 5281
5873 5870 5866 5862 5858 5854 5849 5845 5841 5835 5829 5822 5816 5808 5800 5791 5782 5773 5763 5753 5742 5729 5716 5703 5688 5672 5656 5639 5621 5602 5582 5563 5544 5526 5509 5491 5473 5454 5435 5415 5395 5375 5356 5338 5322 5307 5293 5282 5276
5873 5870 5866 5861 5857 5853 5848 5842 5839 5832 5825 5818 5811 5803 5794 5785 5776 5767 5756 5745 5734 5721 5708 5694 5678 5663 5646 5629 5611 5592 5573 5553 5535 5518 5501 5483 5465 5447 5428 5408 5389 5369 5351 5334 5319 5305 5293 5283 5277
5871 5868 5865 5860 5855 5852 5846 5841 5837 5829 5822 5814 5806 5798 5789 5780 5770 5760 5749 5738 5726 5713 5699 5685 5670 5654 5637 5620 5601 5583 5564 5545 5527 5509 5492 5475 5457 5439 5420 5401 5382 5364 5347 5332 5318 5306 5296 5287 5281
5870 5866 5863 5859 5854 5849 5844 5839 5833 5825 5818 5810 5802 5793 5784 5774 5764 5753 5742 5731 5719 5705 5691 5677 5661 5646 5629 5612 5593 5575 5556 5538 5520 5503 5485 5468 5451 5433 5415 5397 5378 5361 5345 5330 5318 5308 5299 5291 5285
5868 5864 5860 5855 5850 5846 5841 5835 5829 5821 5814 5807 5798 5789 5779 5769 5758 5747 5736 5724 5711 5698 5684 5669 5654 5638 5622 5604 5586 5568 5550 5532 5515 5497 5480 5463 5446 5429 5411 5394 5376 5360 5344 5330 5318 5309 5300 5293 5288
5866 5862 5857 5852 5847 5842 5837 5834 5826 5819 5811 5803 5794 5784 5774 5764 5753 5741 5729 5717 5705 5691 5677 5663 5647 5632 5615 5598 5580 5562 5544 5527 5510 5493 5476 5459 5443 5426 5409 5392 5375 5359 5344 5330 5318 5308 5301 5294 5289
5863 5859 5855 5852 5846 5840 5835 5832 5822 5815 5807 5799 5790 5780 5770 5759 5747 5736 5724 5711 5698 5685 5671 5656 5641 5625 5609 5592 5575 5557 5540 5523 5506 5489 5473 5457 5440 5424 5407 5391 5374 5358 5343 5330 5318 5308 5301 5294 5289